This demonstration page uses our WeatherBlox Daily Observations layout. Learn more.

Left ArrowRight Arrow

Hourly Observations for May 17, 2015

Temp ( °F °C ) Dew Point ( °F °C ) Humidity (%) Winds ( mph kmh ) Pressure ( in mb ) Visibility ( mi km ) Precip ( " mm )
12:51 am 00:51 Clear 55 12.8 37 2.8 51 51 NW 3 6 29.94 1014 10 16 0.00 0.00
1:51 am 01:51 Clear 54 12.2 38 3.3 55 55 Calm 29.93 1014 10 16 0.00 0.00
2:51 am 02:51 Clear 53 11.7 38 3.3 57 57 S 8 13 29.93 1014 10 16 0.00 0.00
3:51 am 03:51 Clear 52 11.1 39 3.9 61 61 NE 7 11 29.93 1014 10 16 0.00 0.00
4:51 am 04:51 Clear 53 11.7 38 3.3 57 57 S 7 11 29.92 1013 10 16 0.00 0.00
5:51 am 05:51 Sunny 50 10 38 3.3 63 63 NE 7 11 29.95 1014 10 16 0.00 0.00
6:51 am 06:51 Sunny 56 13.3 37 2.8 49 49 SSE 7 11 29.96 1015 10 16 0.00 0.00
7:51 am 07:51 Sunny 62 16.7 36 2.2 38 38 ESE 9 15 29.98 1015 10 16 0.00 0.00
8:51 am 08:51 Sunny 65 18.3 35 1.7 33 33 undefined N/A 29.98 1015 10 16 0.00 0.00
9:51 am 09:51 Sunny 68 20 32 0 26 26 S 6 9 29.97 1015 10 16 0.00 0.00
10:51 am 10:51 Sunny 71 21.7 33 0.6 25 25 SSW 5 7 29.97 1015 10 16 0.00 0.00
11:51 am 11:51 Sunny 77 25 32 0 19 19 NW 8 13 29.94 1014 10 16 0.00 0.00
12:51 pm 12:51 Sunny 78 25.6 30 -1.1 17 17 NW 10 17 29.91 1013 10 16 0.00 0.00
1:51 pm 13:51 Sunny 80 26.7 30 -1.1 16 16 undefined N/A 29.89 1012 10 16 0.00 0.00
2:51 pm 14:51 Sunny 80 26.7 30 -1.1 16 16 undefined N/A 29.86 1011 10 16 0.00 0.00
3:51 pm 15:51 Sunny 81 27.2 29 -1.7 15 15 Calm 29.85 1011 10 16 0.00 0.00
4:51 pm 16:51 Sunny 83 28.3 28 -2.2 13 13 E 5 7 29.83 1010 10 16 0.00 0.00
5:51 pm 17:51 Sunny 82 27.8 28 -2.2 14 14 VRB 6 9 29.83 1010 10 16 0.00 0.00
6:51 pm 18:51 Sunny 79 26.1 28 -2.2 15 15 NW 3 6 29.83 1010 10 16 0.00 0.00
7:51 pm 19:51 Clear 73 22.8 29 -1.7 19 19 NW 7 11 29.84 1011 10 16 0.00 0.00
8:51 pm 20:51 Clear 68 20 29 -1.7 23 23 WNW 8 13 29.86 1011 10 16 0.00 0.00
9:51 pm 21:51 Clear 65 18.3 31 -0.6 28 28 WNW 7 11 29.88 1012 10 16 0.00 0.00
10:51 pm 22:51 Clear 67 19.4 32 0 27 27 N 8 13 29.88 1012 10 16 0.00 0.00
11:51 pm 23:51 Clear 65 18.3 33 0.6 31 31 SSW 5 7 29.88 1012 10 16 0.00 0.00

Powered by AerisWeather